Time,TemperatureF,DewpointF,PressureIn,WindDirection,WindDirectionDegrees,WindSpeedMPH,WindSpeedGustMPH,Humidity,HourlyPrecipIn,Conditions,Clouds,dailyrainin,SoftwareType,DateUTC
2013-01-16 00:07:00,27.6,21.0,30.05,ENE,65,0.0,-999.0,76,-99.99,,,0.00,weatherlink.com 1.10,2013-01-16 05:07:00,
2013-01-16 00:22:00,27.9,21.0,30.04,East,88,0.0,-999.0,74,-99.99,,,0.00,weatherlink.com 1.10,2013-01-16 05:22:00,
2013-01-16 00:37:00,28.1,20.0,30.04,East,88,0.0,-999.0,72,-99.99,,,0.00,weatherlink.com 1.10,2013-01-16 05:37:00,
2013-01-16 00:52:00,28.2,20.0,30.04,East,88,0.0,-999.0,72,-99.99,,,0.00,weatherlink.com 1.10,2013-01-16 05:52:00,
2013-01-16 01:07:00,28.4,21.0,30.02,East,88,0.0,-999.0,73,-99.99,,,0.00,weatherlink.com 1.10,2013-01-16 06:07:00,
2013-01-16 01:22:00,28.4,21.0,30.02,East,88,0.0,-999.0,73,-99.99,,,0.00,weatherlink.com 1.10,2013-01-16 06:22:00,
2013-01-16 01:37:00,28.4,20.0,30.01,East,88,0.0,-999.0,71,-99.99,,,0.00,weatherlink.com 1.10,2013-01-16 06:37:00,
2013-01-16 01:52:00,28.5,21.0,30.00,East,88,0.0,-999.0,73,-99.99,,,0.00,weatherlink.com 1.10,2013-01-16 06:52:00,
2013-01-16 02:07:00,28.5,21.0,29.99,East,88,0.0,-999.0,73,-99.99,,,0.00,weatherlink.com 1.10,2013-01-16 07:07:00,
2013-01-16 02:22:00,28.5,21.0,30.00,NNW,340,0.0,-999.0,73,-99.99,,,0.00,weatherlink.com 1.10,2013-01-16 07:22:00,
2013-01-16 02:37:00,28.5,22.0,29.99,NNW,340,0.0,-999.0,75,-99.99,,,0.00,weatherlink.com 1.10,2013-01-16 07:37:00,
2013-01-16 02:52:00,28.4,21.0,29.99,NNW,340,0.0,-999.0,75,-99.99,,,0.00,weatherlink.com 1.10,2013-01-16 07:52:00,
2013-01-16 03:07:00,28.2,22.0,30.00,NNW,340,0.0,-999.0,76,-99.99,,,0.00,weatherlink.com 1.10,2013-01-16 08:07:00,
2013-01-16 03:22:00,28.2,22.0,29.99,NNW,340,0.0,-999.0,77,-99.99,,,0.00,weatherlink.com 1.10,2013-01-16 08:22:00,
2013-01-16 03:37:00,28.1,22.0,29.97,NNW,340,0.0,-999.0,78,-99.99,,,0.00,weatherlink.com 1.10,2013-01-16 08:37:00,
2013-01-16 03:52:00,27.9,22.0,29.97,NNW,340,0.0,-999.0,78,-99.99,,,0.00,weatherlink.com 1.10,2013-01-16 08:52:00,
2013-01-16 04:07:00,27.9,22.0,29.98,NNW,340,0.0,-999.0,78,-99.99,,,0.00,weatherlink.com 1.10,2013-01-16 09:07:00,
2013-01-16 04:22:00,28.1,22.0,29.97,NNW,340,0.0,-999.0,79,-99.99,,,0.00,weatherlink.com 1.10,2013-01-16 09:22:00,
2013-01-16 04:37:00,28.1,22.0,29.95,NNW,340,0.0,-999.0,79,-99.99,,,0.00,weatherlink.com 1.10,2013-01-16 09:37:00,
2013-01-16 04:52:00,27.9,22.0,29.95,NNW,340,0.0,-999.0,79,-99.99,,,0.00,weatherlink.com 1.10,2013-01-16 09:52:00,
2013-01-16 05:07:00,27.9,23.0,29.94,NNW,340,0.0,-999.0,80,-99.99,,,0.00,weatherlink.com 1.10,2013-01-16 10:07:00,
2013-01-16 05:22:00,27.9,23.0,29.93,NNW,340,0.0,-999.0,81,-99.99,,,0.00,weatherlink.com 1.10,2013-01-16 10:22:00,
2013-01-16 05:37:00,28.1,23.0,29.92,NNW,340,0.0,-999.0,81,-99.99,,,0.00,weatherlink.com 1.10,2013-01-16 10:37:00,
2013-01-16 05:52:00,28.1,23.0,29.92,NNW,340,0.0,-999.0,81,-99.99,,,0.00,weatherlink.com 1.10,2013-01-16 10:52:00,
2013-01-16 06:08:00,28.1,23.0,29.91,NNW,340,0.0,-999.0,81,-99.99,,,0.00,weatherlink.com 1.10,2013-01-16 11:08:00,
2013-01-16 06:22:00,28.2,23.0,29.91,NNW,340,0.0,-999.0,81,-99.99,,,0.00,weatherlink.com 1.10,2013-01-16 11:22:00,
2013-01-16 06:37:00,28.4,23.0,29.91,NNW,340,0.0,-999.0,81,-99.99,,,0.00,weatherlink.com 1.10,2013-01-16 11:37:00,
2013-01-16 06:52:00,28.4,23.0,29.91,NNW,340,0.0,-999.0,81,-99.99,,,0.00,weatherlink.com 1.10,2013-01-16 11:52:00,
2013-01-16 07:07:00,28.5,23.0,29.91,NNW,340,0.0,-999.0,81,-99.99,,,0.00,weatherlink.com 1.10,2013-01-16 12:07:00,
2013-01-16 07:22:00,28.5,23.0,29.90,NNW,340,0.0,-999.0,80,-99.99,,,0.00,weatherlink.com 1.10,2013-01-16 12:22:00,
2013-01-16 07:37:00,28.5,23.0,29.89,NNW,340,0.0,-999.0,80,-99.99,,,0.00,weatherlink.com 1.10,2013-01-16 12:37:00,
2013-01-16 07:52:00,28.7,24.0,29.90,NNW,340,0.0,-999.0,81,-99.99,,,0.00,weatherlink.com 1.10,2013-01-16 12:52:00,
2013-01-16 08:07:00,28.8,24.0,29.90,NNW,340,0.0,-999.0,81,-99.99,,,0.00,weatherlink.com 1.10,2013-01-16 13:07:00,
2013-01-16 08:22:00,28.8,23.0,29.90,NNW,340,0.0,-999.0,80,-99.99,,,0.00,weatherlink.com 1.10,2013-01-16 13:22:00,
2013-01-16 08:37:00,28.8,23.0,29.91,NNW,340,0.0,-999.0,79,-99.99,,,0.00,weatherlink.com 1.10,2013-01-16 13:37:00,
2013-01-16 08:52:00,29.0,23.0,29.91,NNW,340,0.0,-999.0,79,-99.99,,,0.00,weatherlink.com 1.10,2013-01-16 13:52:00,
2013-01-16 09:07:00,29.3,24.0,29.89,NNW,340,0.0,-999.0,79,-99.99,,,0.00,weatherlink.com 1.10,2013-01-16 14:07:00,
2013-01-16 09:22:00,29.7,24.0,29.88,SE,137,0.0,-999.0,80,-99.99,,,0.00,weatherlink.com 1.10,2013-01-16 14:22:00,
2013-01-16 09:37:00,30.1,25.0,29.87,SE,137,0.0,-999.0,81,-99.99,,,0.00,weatherlink.com 1.10,2013-01-16 14:37:00,
2013-01-16 09:52:00,30.9,-99.9,29.86,SSE,150,1.0,-999.0,-999,-99.99,,,0.00,weatherlink.com 1.10,2013-01-16 14:52:00,
2013-01-16 10:07:00,31.3,26.0,29.86,SSE,164,0.0,-999.0,82,-99.99,,,0.00,weatherlink.com 1.10,2013-01-16 15:07:00,
2013-01-16 10:22:00,31.3,26.0,29.86,SSE,151,0.0,-999.0,82,-99.99,,,0.00,weatherlink.com 1.10,2013-01-16 15:22:00,
2013-01-16 10:37:00,31.5,27.0,29.84,SE,145,0.0,-999.0,82,-99.99,,,0.00,weatherlink.com 1.10,2013-01-16 15:37:00,
2013-01-16 10:52:00,31.8,27.0,29.83,SSW,205,7.0,-999.0,83,-99.99,,,0.00,weatherlink.com 1.10,2013-01-16 15:52:00,
2013-01-16 11:07:00,32.1,28.0,29.83,SW,217,0.0,-999.0,83,-99.99,,,0.00,weatherlink.com 1.10,2013-01-16 16:07:00,
2013-01-16 11:22:00,32.1,27.0,29.83,SSE,160,1.0,-999.0,82,-99.99,,,0.00,weatherlink.com 1.10,2013-01-16 16:22:00,
2013-01-16 11:37:00,32.1,28.0,29.83,SW,227,2.0,-999.0,83,-99.99,,,0.00,weatherlink.com 1.10,2013-01-16 16:37:00,
2013-01-16 11:52:00,32.4,28.0,29.82,SSW,210,6.0,-999.0,83,-99.99,,,0.00,weatherlink.com 1.10,2013-01-16 16:52:00,
2013-01-16 12:22:00,33.1,29.0,29.81,SSW,206,7.0,-999.0,83,-99.99,,,0.00,weatherlink.com 1.10,2013-01-16 17:22:00,
2013-01-16 12:37:00,33.2,28.0,29.81,SW,216,6.0,-999.0,82,-99.99,,,0.00,weatherlink.com 1.10,2013-01-16 17:37:00,
2013-01-16 12:52:00,33.4,29.0,29.80,SW,220,0.0,-999.0,83,-99.99,,,0.00,weatherlink.com 1.10,2013-01-16 17:52:00,
2013-01-16 13:07:00,33.1,28.0,29.81,WSW,246,6.0,-999.0,81,-99.99,,,0.00,weatherlink.com 1.10,2013-01-16 18:07:00,
2013-01-16 13:22:00,33.2,28.0,29.80,WSW,237,3.0,-999.0,81,-99.99,,,0.00,weatherlink.com 1.10,2013-01-16 18:22:00,
2013-01-16 13:37:00,33.5,28.0,29.80,SW,236,5.0,-999.0,80,-99.99,,,0.00,weatherlink.com 1.10,2013-01-16 18:37:00,
2013-01-16 13:52:00,33.8,28.0,29.79,SW,222,2.0,-999.0,79,-99.99,,,0.00,weatherlink.com 1.10,2013-01-16 18:52:00,
2013-01-16 14:07:00,33.8,27.0,29.79,SW,219,5.0,-999.0,77,-99.99,,,0.00,weatherlink.com 1.10,2013-01-16 19:07:00,
2013-01-16 14:22:00,34.1,27.0,29.79,WNW,292,3.0,-999.0,75,-99.99,,,0.00,weatherlink.com 1.10,2013-01-16 19:22:00,
2013-01-16 14:37:00,34.6,27.0,29.79,WSW,246,7.0,-999.0,73,-99.99,,,0.00,weatherlink.com 1.10,2013-01-16 19:37:00,
2013-01-16 14:52:00,33.7,25.0,29.81,South,186,5.0,-999.0,70,-99.99,,,0.00,weatherlink.com 1.10,2013-01-16 19:52:00,
2013-01-16 15:08:00,34.0,25.0,29.79,SW,229,2.0,-999.0,70,-99.99,,,0.00,weatherlink.com 1.10,2013-01-16 20:08:00,
2013-01-16 15:22:00,33.8,25.0,29.80,SW,232,5.0,-999.0,70,-99.99,,,0.00,weatherlink.com 1.10,2013-01-16 20:22:00,
2013-01-16 15:37:00,33.5,24.0,29.80,WSW,246,1.0,-999.0,69,-99.99,,,0.00,weatherlink.com 1.10,2013-01-16 20:37:00,
2013-01-16 16:07:00,33.2,24.0,29.80,SSW,206,2.0,-999.0,68,-99.99,,,0.00,weatherlink.com 1.10,2013-01-16 21:07:00,
2013-01-16 16:22:00,33.1,24.0,29.80,South,191,2.0,-999.0,69,-99.99,,,0.00,weatherlink.com 1.10,2013-01-16 21:22:00,
2013-01-16 16:37:00,32.8,24.0,29.81,SW,216,4.0,-999.0,69,-99.99,,,0.00,weatherlink.com 1.10,2013-01-16 21:37:00,
2013-01-16 17:07:00,32.2,23.0,29.82,SW,220,1.0,-999.0,69,-99.99,,,0.00,weatherlink.com 1.10,2013-01-16 22:07:00,
2013-01-16 17:22:00,31.8,23.0,29.82,SSW,196,0.0,-999.0,69,-99.99,,,0.00,weatherlink.com 1.10,2013-01-16 22:22:00,
2013-01-16 17:37:00,31.8,22.0,29.83,SSW,205,2.0,-999.0,68,-99.99,,,0.00,weatherlink.com 1.10,2013-01-16 22:37:00,
2013-01-16 17:52:00,31.8,21.0,29.83,SW,233,1.0,-999.0,65,-99.99,,,0.00,weatherlink.com 1.10,2013-01-16 22:52:00,
2013-01-16 18:07:00,31.6,21.0,29.84,South,174,0.0,-999.0,65,-99.99,,,0.00,weatherlink.com 1.10,2013-01-16 23:07:00,
2013-01-16 18:37:00,31.8,20.0,29.84,WSW,250,11.0,-999.0,63,-99.99,,,0.00,weatherlink.com 1.10,2013-01-16 23:37:00,
2013-01-16 18:52:00,31.6,21.0,29.85,SSW,210,2.0,-999.0,64,-99.99,,,0.00,weatherlink.com 1.10,2013-01-16 23:52:00,
2013-01-16 19:07:00,31.6,21.0,29.85,SW,220,7.0,-999.0,64,-99.99,,,0.00,weatherlink.com 1.10,2013-01-17 00:07:00,
2013-01-16 19:37:00,31.5,21.0,29.86,SW,220,6.0,-999.0,66,-99.99,,,0.00,weatherlink.com 1.10,2013-01-17 00:37:00,
2013-01-16 19:52:00,31.5,22.0,29.86,South,179,9.0,-999.0,67,-99.99,,,0.00,weatherlink.com 1.10,2013-01-17 00:52:00,
2013-01-16 20:07:00,31.3,22.0,29.86,SSW,198,1.0,-999.0,69,-99.99,,,0.00,weatherlink.com 1.10,2013-01-17 01:07:00,
2013-01-16 20:22:00,31.2,23.0,29.86,South,189,2.0,-999.0,71,-99.99,,,0.00,weatherlink.com 1.10,2013-01-17 01:22:00,
2013-01-16 20:37:00,31.0,23.0,29.86,South,186,2.0,-999.0,73,-99.99,,,0.00,weatherlink.com 1.10,2013-01-17 01:37:00,
2013-01-16 20:52:00,30.9,24.0,29.86,SSW,205,4.0,-999.0,75,-99.99,,,0.00,weatherlink.com 1.10,2013-01-17 01:52:00,
2013-01-16 21:07:00,30.9,24.0,29.85,WSW,240,7.0,-999.0,76,-99.99,,,0.00,weatherlink.com 1.10,2013-01-17 02:07:00,
2013-01-16 21:37:00,30.7,24.0,29.85,WSW,244,8.0,-999.0,76,-99.99,,,0.00,weatherlink.com 1.10,2013-01-17 02:37:00,
2013-01-16 21:52:00,30.9,24.0,29.87,WSW,243,2.0,-999.0,75,-99.99,,,0.00,weatherlink.com 1.10,2013-01-17 02:52:00,
2013-01-16 22:07:00,30.9,24.0,29.87,WSW,256,8.0,-999.0,74,-99.99,,,0.00,weatherlink.com 1.10,2013-01-17 03:07:00,
2013-01-16 22:22:00,31.0,24.0,29.86,SW,232,10.0,-999.0,74,-99.99,,,0.00,weatherlink.com 1.10,2013-01-17 03:22:00,
2013-01-16 22:37:00,31.2,24.0,29.88,SW,226,6.0,-999.0,74,-99.99,,,0.00,weatherlink.com 1.10,2013-01-17 03:37:00,
2013-01-16 22:52:00,31.2,23.0,29.87,SSW,206,4.0,-999.0,73,-99.99,,,0.00,weatherlink.com 1.10,2013-01-17 03:52:00,
2013-01-16 23:07:00,31.3,23.0,29.88,WSW,243,10.0,-999.0,72,-99.99,,,0.00,weatherlink.com 1.10,2013-01-17 04:07:00,
2013-01-16 23:22:00,31.3,23.0,29.89,South,179,1.0,-999.0,70,-99.99,,,0.00,weatherlink.com 1.10,2013-01-17 04:22:00,
2013-01-16 23:37:00,31.5,22.0,29.88,WSW,250,6.0,-999.0,69,-99.99,,,0.00,weatherlink.com 1.10,2013-01-17 04:37:00,
2013-01-16 23:52:00,31.5,22.0,29.88,WNW,285,2.0,-999.0,67,-99.99,,,0.00,weatherlink.com 1.10,2013-01-17 04:52:00,